Regional Weather Roundup
Issued by NWS Portland, ME

Home | Current Version | Previous Version | Text Only | Print | Product List | Glossary On
Versions: 1 2 3 4 5 6 7 8 9 10 11 12 13 14 15 16 17 18 19 20 21 22 23 24 25 26 27 28 29 30 31 32 33 34 35 36 37 38 39 40 41 42 43 44 45 46 47 48 49 50
000
ASUS41 KGYX 200110
RWRGYX
WEATHER ROUNDUP FOR MAINE AND NEW HAMPSHIRE
NATIONAL WEATHER SERVICE GRAY ME
900 PM EDT SAT AUG 19 2017

MEZ002-005-006-010-012-015-018-020-021-024-026-027-029-200200-
MAINE

CITY           SKY/WX    TMP DP  RH WIND       PRES   REMARKS
PORTLAND       CLOUDY    65  63  93 S5        29.80S FOG
SANFORD        CLEAR     66  65  96 SW3       29.81R
BAR HARBOR     CLOUDY    66  64  93 SW5       29.82R
WISCASSET      MOCLDY    66  63  90 CALM      29.82R
ROCKLAND       CLOUDY    62  61  96 CALM      29.82R
FRYEBURG       PTCLDY    73  64  73 SW3       29.80R
LEWISTONAUBURN PTCLDY    66  64  93 S6        29.81R
AUGUSTA        PTCLDY    68  64  87 S7        29.81R
WATERVILLE     PTCLDY    66  65  96 CALM      29.78R
BANGOR         MOCLDY    69  64  84 CALM      29.80S
GREENVILLE       N/A     64  63  96 SE5       29.82R
MILLINOCKET    CLOUDY    65  64  97 CALM      29.82R
HOULTON        CLOUDY    65  64  97 CALM      29.79R
PRESQUE ISLE   LGT RAIN  63  63 100 CALM      29.81R FOG
FRENCHVILLE    CLOUDY    62  59  90 S5        29.79S
CARIBOU        CLOUDY    65  61  87 S7        29.79R
$$

NHZ002-005-008-009-011-012-014-200200-
NEW HAMPSHIRE

CITY           SKY/WX    TMP DP  RH WIND       PRES   REMARKS
PORTSMOUTH     MOCLDY    67  64  93 CALM      29.79R
ROCHESTER      CLEAR     68  64  87 CALM      29.81R
NASHUA         CLEAR     71  67  87 CALM      29.82R
MANCHESTER     PTCLDY    75  64  68 CALM      29.80R
CONCORD        CLEAR     73  63  70 SW3       29.81R
LACONIA        PTCLDY    71  64  78 SW5       29.82R
PLYMOUTH       FAIR      68  64  86 CALM      29.81R
BERLIN         PTCLDY    68  63  84 CALM      29.82R
WHITEFIELD     PTCLDY    73  61  65 VRB3      29.81R
JAFFREY        PTCLDY    68  67  96 CALM      29.87R
KEENE            N/A    N/A N/A N/A MISG        N/A
LEBANON        PTCLDY    69  63  81 S7        29.82R
MT WASHINGTON  FOG       52  52 100 W29G37      N/A  VSB 0
$$

VTZ005-007-008-200200-
VERMONT

CITY           SKY/WX    TMP DP  RH WIND       PRES   REMARKS
ST JOHNSBURY     N/A     69  68  96 MISG      29.79R
MONTPELIER     MOCLDY    72  60  66 SW9       29.86R
BURLINGTON     PTCLDY    75  57  53 W8        29.81R
$$

MAZ007-012-024-CTZ003-RIZ002-NYZ038-NYZ072-200200-
SOUTHERN NEW ENGLAND AND NY

CITY           SKY/WX    TMP DP  RH WIND       PRES   REMARKS
BOSTON         PTCLDY    66  65  96 CALM      29.82R
WORCESTER      CLEAR     72  61  68 W7        29.87R
NANTUCKET      FOG       68  68 100 SW7       29.86R VSB 1/2
PROVIDENCE     PTCLDY    77  68  73 SW7       29.84R
HARTFORD       PTCLDY    76  65  68 SW6       29.83R
ALBANY         MOCLDY    72  64  76 CALM      29.84R
NEW YORK CITY  PTCLDY    84  64  50 SW10      29.85R
$$

ANZ081-ANZ082-ANZ150-NHZ014-MEZ023>029-200200-
COASTAL MARINE OBSERVATIONS

STATION/POSITION TIME  TEMP    WIND        PRES    WAVE
                       AIR SEA DIR/SP/G            HT/PER
                 (UTC) (F)     (DEG/KT/KT) (MB)    (FT/S)
MOUNT DESERT ROC 0100   59                 1010.0R
MATINICUS ROCK   0000   62     180/  8/  8 1009.0R
ISLE OF SHOALS   0000   66     180/ 16/ 17 1008.6R
JEFFREYS LEDGE   0006      65                N/A     3/ 7
CASHES LEDGE BUO 0050   65 69              1009.2S   3/ 7
GEORGES BANK BUO 2350   68 62              1011.4    6/ 6
$$

.............KEY..............
   WCI - WIND CHILL
   TC  - TEMPERATURE IN CELSIUS
   VSB - VISIBILITY IN MILES
   HX  - HEAT INDEX
   FAIR- INDICATES FEW OR NO CLOUDS BELOW 12,000 FT, WITH NO
         SIGNIFICANT WEATHER AND/OR OBSTRUCTIONS TO VISIBILITY.






USA.gov is the U.S. government's official web portal to all federal, state and local government web resources and services.